Flag for U.S.A. Weather past 2 weeks in Shiprock, New Mexico, U.S.A.

Now
51 °F

Sunny.


Feels Like: 48 °F
Forecast: 35 / 70 °F
Wind: 8 mph from West

Location: Four Corners Regional Airport


UV Index: 7 (High)

Visibility: 10 mi


Pressure: 30.11 "Hg

Humidity: 18%

Dew point: 9 °F

Location of ShiprockLocation

Historic Weather in Shiprock

°F

Shiprock temperature yesterday

Maximum temperature yesterday: 65 °F (at 12:53 PM)
Minimum temperature yesterday: 44 °F (at 11:53 PM)
Average temperature yesterday: 58 °F

Past Weeks' High & Low Weather Summary

 TemperatureHumidityPressure
High78 °F (Apr 22, 2:53 PM)90% (Apr 19, 6:53 AM)30.20 "Hg (Apr 19, 6:53 AM)
Low23 °F (Apr 15, 5:53 AM)4% (Apr 10, 5:53 PM)29.59 "Hg (Apr 12, 4:53 PM)
Average54 °F29%29.93 "Hg
* Reported Apr 9 9:53 AM — Apr 24 9:53 AM, Shiprock, Weather by CustomWeather, © 2014

Note: Actual official high and low records may vary slightly from our data, if they occured in-between our weather recording intervals... More about our weather records

Advertising

Historic Weather Conditions — Data for Previous 24 hours

 ConditionsComfort  
Time TempWeatherWind HumidityBarometerVisibility
9:53 AM
Apr 24
47 °FSunny.No wind21%30.10 "Hg10 mi
8:53 AM44 °FSunny.3 mph24%30.09 "Hg10 mi
7:53 AM40 °FSunny.No wind28%30.08 "Hg10 mi
6:53 AM34 °FClear.8 mph37%30.06 "Hg10 mi
5:53 AM33 °FClear.3 mph38%30.03 "Hg10 mi
4:53 AM37 °FClear.No wind33%30.00 "Hg10 mi
3:53 AM36 °FClear.6 mph34%29.99 "Hg10 mi
2:53 AM37 °FClear.6 mph36%29.97 "Hg10 mi
1:53 AM41 °FClear.8 mph27%29.95 "Hg10 mi
12:53 AM43 °FClear.5 mph24%29.93 "Hg10 mi
11:53 PM
Apr 23
44 °FClear.7 mph24%29.91 "Hg10 mi
10:53 PM47 °FClear.12 mph22%29.89 "Hg10 mi
9:53 PM49 °FClear.13 mph19%29.88 "Hg10 mi
8:53 PM52 °FSunny.17 mph17%29.84 "Hg10 mi
7:53 PM54 °FSunny.23 mph16%29.81 "Hg10 mi
6:53 PM58 °FSunny.22 mph15%29.79 "Hg10 mi
5:53 PM61 °FPassing clouds.21 mph12%29.75 "Hg10 mi
4:53 PM63 °FSunny.18 mph12%29.73 "Hg10 mi
3:53 PM62 °FSunny.14 mph11%29.72 "Hg10 mi
2:53 PM62 °FSunny.22 mph11%29.70 "Hg10 mi
1:53 PM64 °FSunny.16 mph12%29.68 "Hg10 mi
12:53 PM65 °FSunny.25 mph13%29.68 "Hg10 mi
11:53 AM64 °FSunny.17 mph15%29.69 "Hg10 mi
Weather by CustomWeather, © 2014

See weather overview